Simultaneous Nadir Overpasses (SNOs) Predictions

Prediction of SNOs between GOES-16 and METOP-C Satellite Orbit:

Table of predicted SNOs for the next 14.0 days since TLE Epoch: 1/27/2024
Index Date Time (GOES-16) GOES-16 Lat,Lon METOP-C Lat,Lon Distance(km) Time Diff (sec)
1 01/28/2024 14:40:24 0.02, -75.23 0.50, -77.29 235.64 80
2 01/29/2024 14:17:04 0.02, -75.24 -0.65, -72.30 334.73 80
3 01/31/2024 02:38:45 -0.02, -75.23 -0.36, -76.90 189.96 80
4 02/01/2024 02:15:24 -0.02, -75.24 0.73, -71.90 380.56 80
5 02/02/2024 14:36:54 0.02, -75.28 0.31, -76.44 133.48 80
6 02/03/2024 14:13:34 0.01, -75.29 -0.85, -71.46 437.31 80
7 02/05/2024 02:35:14 -0.01, -75.29 -0.16, -76.05 86.98 80
8 02/06/2024 02:11:54 -0.01, -75.30 0.95, -71.05 483.81 80
9 02/07/2024 14:30:43 0.01, -75.34 0.07, -75.60 30.10 80
10 02/10/2024 02:29:03 -0.01, -75.35 0.05, -75.21 17.80 80
